OK1TBF-6 Weather Reports


Display with metric or nautical units.
time (UTC)temp
F
wind
direction
speed
MPH
gust
MPH
rain 1hr
in
rain 24hr
in
rain mn
in
humidity
%
barometer
mb
20260507012100 53 224 3.0 4.0 0.00 0.00 0.00 96 999.1
20260507011558 53 108 2.0 6.0 0.00 0.00 0.00 95 998.9
20260507010557 53 90 3.0 4.0 0.00 0.00 0.00 96 998.9
20260507010057 53 265 0.0 4.0 0.00 0.00 0.00 97 998.9
20260507004557 53 237 2.0 6.0 0.00 0.00 0.00 97 998.9
20260507004057 53 233 3.0 6.0 0.00 0.00 0.00 96 998.8
20260507003557 55 154 4.0 6.0 0.00 0.00 0.00 92 998.6
20260507003057 55 96 0.0 4.0 0.00 0.00 0.00 90 998.5
20260507002056 54 89 2.0 4.0 0.00 0.00 0.00 91 998.4
20260507001057 53 90 0.0 11.0 0.00 0.00 0.00 94 998.2
20260507000556 53 90 8.0 11.0 0.00 0.00 0.00 95 998.1
20260507000058 53 84 8.0 11.0 0.00 0.00 0.00 95 997.7
20260506235556 53 62 4.0 6.0 0.00 0.00 0.00 95 997.8
20260506234556 53 343 3.0 8.0 0.00 0.00 0.00 96 998.1
20260506234056 53 338 5.0 8.0 0.00 0.00 0.00 97 998.2
20260506233555 53 12 2.0 8.0 0.00 0.00 0.00 97 997.9
20260506233056 53 341 0.0 8.0 0.00 0.00 0.00 97 998.0
20260506232555 53 313 6.0 8.0 0.00 0.00 0.00 97 998.1
20260506232057 52 310 2.0 8.0 0.00 0.00 0.00 97 998.2
20260506231556 52 310 2.0 8.0 0.00 0.00 0.00 97 998.3
20260506231056 52 302 5.0 8.0 0.00 0.00 0.00 97 998.2
20260506230556 52 302 4.0 8.0 0.00 0.00 0.00 97 998.5
20260506230056 52 299 2.0 11.0 0.00 0.00 0.00 97 998.3
20260506225556 52 287 4.0 11.0 0.00 0.00 0.00 97 998.4
20260506225055 52 272 8.0 11.0 0.00 0.00 0.00 96 998.4
20260506224556 52 264 10.0 11.0 0.00 0.00 0.00 95 998.5
20260506223555 53 273 7.0 11.0 0.00 0.00 0.00 93 998.2
20260506223056 54 255 4.0 8.0 0.00 0.00 0.00 94 997.9
20260506222055 55 283 6.0 8.0 0.00 0.00 0.00 91 997.8
20260506221554 56 303 3.0 6.0 0.00 0.00 0.00 90 997.6
20260506221055 56 311 2.0 4.0 0.00 0.00 0.00 89 997.5
20260506220556 58 165 2.0 4.0 0.00 0.00 0.00 86 997.4
20260506220057 59 150 0.0 6.0 0.00 0.00 0.00 80 997.2
20260506215554 59 144 1.0 6.0 0.00 0.00 0.00 79 997.1
20260506214554 58 153 0.0 4.0 0.00 0.00 0.00 83 996.9
20260506213554 57 108 1.0 2.0 0.00 0.00 0.00 84 996.8
20260506213054 57 94 1.0 4.0 0.00 0.00 0.00 84 996.8
20260506212555 57 129 0.0 4.0 0.00 0.00 0.00 85 996.8
20260506212055 57 131 1.0 6.0 0.00 0.00 0.00 84 996.9
20260506211554 57 125 2.0 6.0 0.00 0.00 0.00 84 996.8
20260506211055 57 122 1.0 6.0 0.00 0.00 0.00 84 996.8
20260506210554 57 99 4.0 6.0 0.00 0.00 0.00 85 996.3
20260506210056 57 87 3.0 7.0 0.00 0.00 0.00 84 996.8
20260506205554 57 90 4.0 7.0 0.00 0.00 0.00 84 996.8
20260506205055 57 117 4.0 7.0 0.00 0.00 0.00 84 996.7
20260506204555 57 121 1.0 7.0 0.00 0.00 0.00 85 996.9
20260506204054 57 110 2.0 7.0 0.00 0.00 0.00 84 997.0
20260506203554 57 127 4.0 4.0 0.00 0.00 0.00 84 996.7
20260506202554 57 102 2.0 7.0 0.00 0.00 0.00 84 996.8
20260506201554 57 108 2.0 4.0 0.00 0.00 0.00 84 996.8
20260506201054 56 99 4.0 8.0 0.00 0.00 0.00 85 996.8
20260506200554 57 90 2.0 9.0 0.00 0.00 0.00 84 996.8
20260506195553 57 93 5.0 11.0 0.00 0.00 0.00 83 996.9
20260506195053 58 92 7.0 11.0 0.00 0.00 0.00 82 996.7
20260506194554 57 86 5.0 9.0 0.00 0.00 0.00 82 996.7
20260506194053 57 86 2.0 9.0 0.00 0.00 0.00 81 996.7
20260506193553 57 95 8.0 9.0 0.00 0.00 0.00 82 997.0
20260506193055 57 50 1.0 7.0 0.00 0.00 0.00 83 997.0
20260506192554 57 10 2.0 8.0 0.00 0.00 0.00 83 996.9
20260506192054 57 46 2.0 8.0 0.00 0.00 0.00 85 997.2
20260506191554 57 100 1.0 7.0 0.00 0.00 0.00 86 997.1
20260506191054 57 112 2.0 6.0 0.00 0.00 0.00 86 997.2
20260506190553 57 292 2.0 4.0 0.00 0.00 0.00 87 997.1
20260506190054 57 292 2.0 4.0 0.00 0.00 0.00 87 997.2
20260506185553 57 304 2.0 7.0 0.00 0.00 0.00 87 997.1
20260506184552 57 336 3.0 15.0 0.00 0.00 0.00 88 997.2
20260506184054 57 345 7.0 15.0 0.00 0.00 0.00 88 997.0
20260506183553 57 359 3.0 11.0 0.00 0.00 0.00 87 996.8
20260506183053 57 327 3.0 14.0 0.00 0.00 0.00 89 996.9
20260506182554 57 314 2.0 20.0 0.00 0.00 0.00 89 996.8
20260506182054 61 318 10.0 20.0 0.00 0.00 0.00 84 996.8
20260506181553 61 336 5.0 7.0 0.00 0.00 0.00 76 996.8
20260506181054 61 343 2.0 4.0 0.00 0.00 0.00 76 996.3
20260506180554 61 39 2.0 4.0 0.00 0.00 0.00 76 996.3
20260506180054 61 75 0.0 4.0 0.00 0.00 0.00 75 996.2
20260506175553 62 90 0.0 4.0 0.00 0.00 0.00 73 996.1
20260506174553 63 90 2.0 6.0 0.00 0.00 0.00 71 996.0
20260506174053 63 90 2.0 6.0 0.00 0.00 0.00 71 996.1
20260506173552 63 85 4.0 6.0 0.00 0.00 0.00 71 996.1
20260506173053 62 86 2.0 6.0 0.00 0.00 0.00 72 996.1
20260506172553 62 90 4.0 7.0 0.00 0.00 0.00 73 996.1
20260506172052 62 93 4.0 7.0 0.00 0.00 0.00 73 996.1
20260506171553 62 88 4.0 7.0 0.00 0.00 0.00 73 996.0
20260506170552 62 349 2.0 7.0 0.00 0.00 0.00 72 996.1
20260506170053 61 337 4.0 7.0 0.00 0.00 0.00 76 996.1
20260506165553 61 338 4.0 7.0 0.00 0.00 0.00 76 996.1
20260506164553 62 315 10.0 17.0 0.00 0.00 0.00 77 996.4
20260506163552 62 291 10.0 20.0 0.00 0.00 0.00 77 996.4
20260506163052 68 197 8.0 16.0 0.00 0.00 0.00 60 996.3
20260506162552 68 154 11.0 18.0 0.00 0.00 0.00 56 996.5
20260506162053 68 156 14.0 21.0 0.00 0.00 0.00 55 996.3
20260506161552 68 151 13.0 21.0 0.00 0.00 0.00 56 996.1
20260506161053 68 145 16.0 21.0 0.00 0.00 0.00 55 996.1
20260506160552 68 151 16.0 25.0 0.00 0.00 0.00 56 996.0
20260506160052 68 154 16.0 25.0 0.00 0.00 0.00 56 996.3
20260506155552 68 155 13.0 23.0 0.00 0.00 0.00 56 996.5
20260506155053 68 151 11.0 20.0 0.00 0.00 0.00 56 996.6
20260506154552 68 150 12.0 17.0 0.00 0.00 0.00 57 996.8
20260506154051 68 154 11.0 17.0 0.00 0.00 0.00 56 996.5
20260506153552 68 155 10.0 18.0 0.00 0.00 0.00 55 996.6
20260506153051 68 150 8.0 18.0 0.00 0.00 0.00 56 996.7
20260506152552 68 143 9.0 15.0 0.00 0.00 0.00 54 996.9
20260506152052 68 147 10.0 16.0 0.00 0.00 0.00 54 997.0
20260506151552 68 164 11.0 16.0 0.00 0.00 0.00 53 997.0
20260506151051 68 164 12.0 16.0 0.00 0.00 0.00 52 997.0
20260506150551 68 160 7.0 14.0 0.00 0.00 0.00 53 997.1
20260506145551 68 159 8.0 11.0 0.00 0.00 0.00 51 997.2
20260506145052 68 163 5.0 11.0 0.00 0.00 0.00 52 997.1
20260506144551 68 165 4.0 9.0 0.00 0.00 0.00 53 997.2
20260506144051 68 148 2.0 9.0 0.00 0.00 0.00 53 997.2
20260506143051 68 155 1.0 7.0 0.00 0.00 0.00 54 997.3
20260506142051 68 158 2.0 13.0 0.00 0.00 0.00 53 997.4
20260506141551 68 154 7.0 13.0 0.00 0.00 0.00 52 997.4
20260506141052 68 148 4.0 9.0 0.00 0.00 0.00 53 997.6
20260506140552 68 155 3.0 8.0 0.00 0.00 0.00 53 997.5
20260506135550 68 159 6.0 9.0 0.00 0.00 0.00 55 997.7
20260506135050 68 146 5.0 9.0 0.00 0.00 0.00 55 997.7
20260506134052 68 160 5.0 11.0 0.00 0.00 0.00 54 998.0
20260506133550 68 161 6.0 11.0 0.00 0.00 0.00 53 997.9
20260506133051 68 150 8.0 11.0 0.00 0.00 0.00 52 998.0
20260506132051 68 162 3.0 11.0 0.00 0.00 0.00 52 998.0
20260506131550 68 176 7.0 16.0 0.00 0.00 0.00 51 998.3
20260506130551 70 178 10.0 15.0 0.00 0.00 0.00 48 998.1
20260506130051 69 189 8.0 14.0 0.00 0.00 0.00 51 998.2
20260506125550 69 220 4.0 8.0 0.00 0.00 0.00 50 998.2
20260506124550 69 177 6.0 13.0 0.00 0.00 0.00 50 998.5
20260506123551 69 232 3.0 7.0 0.00 0.00 0.00 52 998.5
20260506123050 70 212 2.0 7.0 0.00 0.00 0.00 52 998.5
20260506122549 69 213 4.0 7.0 0.00 0.00 0.00 51 998.7
20260506122049 69 221 2.0 6.0 0.00 0.00 0.00 51 998.7
20260506121550 68 222 4.0 6.0 0.00 0.00 0.00 52 998.7
20260506121050 67 230 3.0 4.0 0.00 0.00 0.00 55 998.8
20260506120549 67 223 3.0 6.0 0.00 0.00 0.00 58 998.8
20260506120050 67 213 3.0 6.0 0.00 0.00 0.00 55 998.7
20260506115550 67 193 2.0 8.0 0.00 0.00 0.00 55 998.9
20260506115049 67 195 2.0 8.0 0.00 0.00 0.00 57 999.0
20260506114549 67 201 7.0 9.0 0.00 0.00 0.00 53 998.9
20260506114050 68 207 4.0 11.0 0.00 0.00 0.00 54 998.9
20260506113549 67 221 4.0 11.0 0.00 0.00 0.00 55 998.9
20260506113049 68 230 6.0 11.0 0.00 0.00 0.00 54 998.9
20260506112550 67 234 4.0 11.0 0.00 0.00 0.00 54 998.9
20260506112049 68 219 7.0 13.0 0.00 0.00 0.00 53 999.1
20260506111550 67 212 6.0 13.0 0.00 0.00 0.00 55 999.0
20260506111049 67 204 5.0 11.0 0.00 0.00 0.00 55 999.2
20260506110549 68 216 5.0 11.0 0.00 0.00 0.00 58 998.9
20260506110049 67 254 4.0 8.0 0.00 0.00 0.00 59 999.0
20260506105050 66 262 4.0 7.0 0.00 0.00 0.00 59 999.3
20260506104549 65 238 4.0 8.0 0.00 0.00 0.00 58 999.4
20260506103549 66 267 5.0 13.0 0.00 0.00 0.00 60 999.4
20260506103050 65 270 8.0 13.0 0.00 0.00 0.00 60 999.5
20260506102548 65 252 8.0 13.0 0.00 0.00 0.00 60 999.3
20260506102048 65 223 4.0 9.0 0.00 0.00 0.00 58 999.5
20260506101049 65 261 4.0 9.0 0.00 0.00 0.00 61 999.3
20260506100548 64 247 5.0 11.0 0.00 0.00 0.00 61 999.5
20260506100049 64 240 8.0 11.0 0.00 0.00 0.00 62 999.4
20260506095548 64 248 5.0 11.0 0.00 0.00 0.00 65 999.5
20260506095049 63 232 7.0 11.0 0.00 0.00 0.00 66 999.5
20260506094549 63 208 4.0 11.0 0.00 0.00 0.00 66 999.5
20260506093548 63 228 8.0 11.0 0.00 0.00 0.00 66 999.5
20260506093048 64 224 4.0 11.0 0.00 0.00 0.00 68 999.7
20260506092548 63 246 6.0 11.0 0.00 0.00 0.00 65 999.5
20260506092048 62 277 5.0 9.0 0.00 0.00 0.00 69 999.6
20260506091049 62 249 2.0 11.0 0.00 0.00 0.00 69 999.6
20260506090548 62 240 5.0 11.0 0.00 0.00 0.00 71 999.5
20260506090049 62 240 4.0 11.0 0.00 0.00 0.00 71 999.5
20260506085549 61 261 5.0 11.0 0.00 0.00 0.00 72 999.5
20260506085049 61 264 4.0 11.0 0.00 0.00 0.00 73 999.4
20260506083548 60 274 5.0 11.0 0.00 0.00 0.00 77 999.5
20260506082549 60 270 6.0 8.0 0.00 0.00 0.00 74 999.6
20260506081548 58 292 8.0 11.0 0.00 0.00 0.00 78 999.5
20260506073048 58 292 10.0 14.0 0.00 0.00 0.00 80 999.4
20260506072547 58 292 10.0 14.0 0.00 0.00 0.00 80 999.6
20260506071547 58 274 8.0 14.0 0.00 0.00 0.00 79 999.5
20260506071047 58 270 9.0 13.0 0.00 0.00 0.00 81 999.4
20260506070547 57 268 9.0 15.0 0.00 0.00 0.00 82 999.5
20260506062047 56 267 9.0 14.0 0.00 0.00 0.00 88 999.5
20260506061547 56 267 7.0 14.0 0.00 0.00 0.00 89 999.4
20260506061048 56 266 5.0 11.0 0.00 0.00 0.00 91 999.3
20260506060546 55 263 6.0 9.0 0.00 0.00 0.00 91 999.1
20260506051047 53 219 1.0 4.0 0.00 0.00 0.00 99 998.7
20260506050546 53 216 2.0 4.0 0.00 0.00 0.00 99 998.6
20260506044546 53 213 2.0 4.0 0.00 0.00 0.00 99 998.8
20260506044046 53 208 2.0 2.0 0.00 0.00 0.00 99 998.6
20260506043545 53 208 2.0 2.0 0.00 0.00 0.00 99 998.7
20260506043046 53 219 2.0 4.0 0.00 0.00 0.00 99 998.8
20260506042545 52 237 2.0 4.0 0.00 0.00 0.00 99 998.6
20260506042045 53 248 2.0 4.0 0.00 0.00 0.00 99 998.5
20260506041546 53 244 2.0 4.0 0.00 0.00 0.00 99 998.5
20260506041045 53 234 2.0 4.0 0.00 0.00 0.00 99 998.2
20260506040544 53 225 1.0 2.0 0.00 0.00 0.00 99 998.1
20260506040047 52 225 0.0 2.0 0.00 0.00 0.00 99 998.3
20260506035545 53 225 2.0 2.0 0.00 0.00 0.00 99 998.3
20260506035046 52 224 1.0 2.0 0.00 0.00 0.00 99 998.2
20260506034545 52 219 0.0 4.0 0.00 0.00 0.00 99 998.0
20260506034045 52 224 2.0 6.0 0.00 0.00 0.00 99 998.0
20260506033546 52 233 2.0 6.0 0.00 0.00 0.00 99 998.2
20260506033045 53 241 4.0 6.0 0.00 0.00 0.00 99 998.2
20260506032546 53 242 4.0 7.0 0.00 0.00 0.00 99 998.1
20260506032046 53 234 3.0 7.0 0.00 0.00 0.00 99 998.3
20260506031545 52 227 4.0 6.0 0.00 0.00 0.00 99 998.1
20260506031045 52 219 3.0 7.0 0.00 0.00 0.00 99 998.1
20260506030545 52 216 4.0 7.0 0.00 0.00 0.00 99 998.0
20260506030045 52 216 4.0 7.0 0.00 0.00 0.00 99 998.1
20260506025045 53 222 4.0 4.0 0.00 0.00 0.00 98 997.9
20260506024544 53 224 3.0 4.0 0.00 0.00 0.00 98 997.8
20260506024045 53 224 2.0 4.0 0.00 0.00 0.00 97 997.7
20260506023544 53 223 2.0 4.0 0.00 0.00 0.00 97 997.8
20260506023044 53 224 2.0 4.0 0.00 0.00 0.00 97 997.8
20260506022546 53 227 2.0 4.0 0.00 0.00 0.00 96 997.6
20260506022044 53 234 2.0 6.0 0.00 0.00 0.00 96 997.6
20260506021544 54 233 3.0 6.0 0.00 0.00 0.00 95 997.8
20260506021045 54 214 3.0 8.0 0.00 0.00 0.00 95 997.7
20260506020544 54 193 3.0 8.0 0.00 0.00 0.00 94 997.8
20260506020045 54 191 4.0 8.0 0.00 0.00 0.00 93 997.9
20260506015545 54 190 6.0 8.0 0.00 0.00 0.00 91 998.0
20260506015044 54 175 4.0 7.0 0.00 0.00 0.00 90 998.0
20260506014544 54 169 2.0 6.0 0.00 0.00 0.00 88 997.7
20260506014045 54 189 4.0 6.0 0.00 0.00 0.00 87 997.8
20260506013543 54 201 3.0 6.0 0.00 0.00 0.00 86 997.8
20260506013045 54 205 4.0 7.0 0.00 0.00 0.00 85 997.7
20260506012545 54 201 3.0 7.0 0.00 0.00 0.00 83 997.7